SL-16 DEB

Satellite information

Favourite Embed

Satellite Type and Status

DEBRISIN ORBIT

Key statistics

Satellite SL-16 DEB at a glance.

Uptime

11936

Days in orbit

Revolutions

≈ 14.0

Per day

Orbit

LEO

Low Earth Orbit

Inclination

71.1

Latest

Satellite identification and parameters

Extended collection of information and parameters for SL-16 DEB.

Object identification

Identified? True

Debris? True

Object name: SL-16 DEB

International designator: 1992-093DB

Object number (NORAD): 22410

Object ID (CCSDS): 22410

Country: COMMONWEALTH OF INDEPENDENT STATES (CIS)

Current information (Y/N): Y

RCS size: SMALL

Orbital parameters

Period: 103.065 minutes

Inclination: 71.0829 deg

SMA: 7281.737 km

Apoapsis: 980.268 km

Periapsis: 826.937 km

RAAN: 223.3702 deg

Eccentricy: 0.01052844

Argument of periapsis: 72.1539 deg

Mean anomaly: 77.8744 deg

Mean motion: 13.97173222 rev/day

Mean motion (dot): 0.00000257 rev/day2

B* drag term: 0.00020522876 1/REarth

Two-line elements (TLE)

Creation date: Aug. 28, 2025, 11:13 p.m.

Reference frame: TEME

Reference center: EARTH

Epoch: Aug. 28, 2025, 9:37 a.m. UTC

TLE line 0: 0 SL-16 DEB

TLE line 1: 1 22410U 92093DB 25240.40109023 .00000257 00000-0 20523-3 0 9993

TLE line 2: 2 22410 71.0829 223.3702 0105284 72.1539 77.8744 13.97173222660921

Live tracking on map

Real-time ground track for satellite SL-16 DEB.

In-orbit conjunctions

A list of the most updated potential collisions computed for object SL-16 DEB.

Target Orbit TCA Probability of collision Miss distance Type
START 1 LEO 2025-06-09 18:27:48 0.000342058 42.0 (m) PAYLOAD
CZ-6A DEB LEO 2025-04-16 14:22:34 0.0007877326 24.0 (m) DEBRIS
DMSP 5D-2 F13 DEB SSO 2025-04-11 05:48:05 0.0003022424 54.0 (m) DEBRIS
COSMOS 962 LEO 2024-11-13 22:57:21 0.0001371532 913.0 (m) PAYLOAD

Associated space launch

Second generation ELING satellite

SL-16 DEB was lifted into orbit during the mission ‘Zenit-2 | Tselina-2 12’, on board a Zenit-2 space rocket.

The launch took place on Dec. 25, 1992, 5:56 a.m. from 45/1.

For more information about the launch, click the button.

Launch to space Zenit-2 | Tselina-2 12
Zenit-2 | Tselina-2 12

Agency: N/A

Status: Launch Successful

Launch date: Dec. 25, 1992, 5:56 a.m. UTC

Rocket: Zenit-2

Launch pad: 45/1

Location: Baikonur Cosmodrome, Republic of Kazakhstan

...

Latest news about this satellite

There are no fresh news available about this satellite. Check back as we update our databases every day.


Newsletter sign-up

Weekly statistics, charts and insights to help you stay on top of the space industry.